World > North America > United States > Utah

Gold Hill, Utah Regional Weather

Lat: 40.17N, Lon: 113.83W
Wx Zone: UTZ005Web Search

Helpful Tip: Abbreviated, 7 Day, 14 Day Forecasts. There is a weather forecast for every taste.

Feedback


°F Click to change Gold Hill hourly weather to Imperial units.Click to change Gold Hill hourly weather to Metric units. °C
Gold Hill Weather Map
UTC Time: 4/10/2021, 18:53
Your Time:

Gold Hill, UT Regional Weather

Expires:202104101900;;342167
ASUS45 KSLC 101810
RWRUT 

UTAH REGIONAL WEATHER ROUNDUP
NATIONAL WEATHER SERVICE SALT LAKE CITY UT
1200 PM MDT SAT APR 10 2021


UTZ001>011-023>025-101900-

NORTHERN UTAH
  
CITY           SKY/WX    TMP DP  RH WIND       PRES   REMARKS
BRIGHAM CITY   SUNNY     55  18  23 CALM      29.97F                  
HILL AFB       MOSUNNY   57  15  19 S8        29.97F                  
LOGAN          MOSUNNY   55  22  27 CALM      29.94F                  
OGDEN          SUNNY     60  14  16 S7        29.96F                  
SALT LAKE CITY MOSUNNY   60  16  18 S6        29.96F                  
TOOELE VALLEY  SUNNY     59  30  33 N3        29.97F                  
WENDOVER       SUNNY     57  14  18 SE7       29.98F                  
HEBER CITY       N/A     54  14  20 CALM      29.97F                  
WEST JORDAN    MOSUNNY   60  29  31 S14       29.97F                  

$$


SKY/WX - Weather  TMP - Temperature  DP - Dew Point  RH - Relative Humidity
WIND - Wind Direction/Speed PRES - Barometric Pressure VSB - Visibility
WCI - Wind Chill Index E13G22 Wind - East Wind 13 mph/Gusts of 22 mph